Location: Hurecourt
(47.9030°N, 6.0653°E)
Time: 03:54:40
(UTC+00:00)

Cosmos 220 Rocket - Pass Details

Date: 14 July 2020
Orbit: 575 x 616 km, 74.0° (Epoch: 06 August)

Event Time Altitude Azimuth Distance (km) Brightness Sun altitude
Rises 00:53:50 0° 339° (NNW) 2,828 8.3 -18.6°
Reaches altitude 10° 00:56:05 10° 342° (NNW) 1,917 7.3 -18.5°
Maximum altitude 01:00:20 68° 66° (ENE) 630 4.2 -18.3°
Enters shadow 01:02:52 23° 145° (SE) 1,244 5.3 -18.1°
